Hamilton, OH

7:43 PM EDT on May 23, 2017 (GMT -0400)
Butler County Regional

Weather History for KHAO - October, 2012

Change the Weather History Date:

Tuesday, October 30, 2012

  Actual Average (KLUK) Record (KLUK)
Temperature  
Mean Temperature 40 °F -  
Max Temperature 44 °F 63 °F 82 °F (1971)
Min Temperature 35 °F 39 °F 25 °F (1966)
Degree Days  
Heating Degree Days 26    
Moisture  
Dew Point 34 °F    
Average Humidity 81    
Maximum Humidity 89    
Minimum Humidity 43    
Precipitation  
Precipitation 0.20 in - - ()
Sea Level Pressure  
Sea Level Pressure 29.63 in    
Wind  
Wind Speed 17 mph (NW)    
Max Wind Speed 25 mph    
Max Gust Speed 44 mph    
Visibility 9 miles    
Events Rain    
Averages and records for this station are not official NWS values.
T = Trace of Precipitation, MM = Missing Value Source: NWS Daily Summary

Daily Weather History Graph

Daily Weather History Graph

Search for Another Location

Airport or City:

Trip Planner

Search our weather history database for the weather conditions in past years. The results will help you decide how hot, cold, wet, or windy it might be!

Date:

Astronomy

Oct. 30, 2012 Rise Set
Actual Time 8:04 AM EDT 6:38 PM EDT
Civil Twilight 7:36 AM EDT 7:06 PM EDT
Nautical Twilight 7:04 AM EDT 7:37 PM EDT
Astronomical Twilight 6:33 AM EDT 8:09 PM EDT
Moon 7:08 PM EDT (10/30) 8:49 AM EDT (10/30)
Length of Visible Light 11h 29m
Length of Day
10h 34m
Full, 99% of the Moon is Illuminated
Oct 30
Full
Nov 6
Last Quarter
Nov 13
New
Nov 20
First Quarter
Nov 28
Full

Hourly Weather History & Observations

Time (EDT) Temp. Windchill Dew Point Humidity Pressure Visibility Wind Dir Wind Speed Gust Speed Precip Events Conditions
12:53 AM 44.1 °F 35.7 °F 23.0 °F 43% 29.74 in 10.0 mi NNW 20.7 mph 33.4 mph N/A   Overcast
1:53 AM 43.0 °F 33.3 °F 23.0 °F 45% 29.70 in 10.0 mi NNW 25.3 mph 43.7 mph N/A   Overcast
3:53 AM 39.0 °F 29.3 °F 30.0 °F 70% 29.65 in 10.0 mi NW 19.6 mph 29.9 mph 0.00 in Rain Light Rain
4:13 AM 37.4 °F 27.5 °F 30.2 °F 75% 29.64 in 9.0 mi NW 18.4 mph 25.3 mph 0.00 in Rain Light Rain
4:53 AM 36.0 °F 26.7 °F 32.0 °F 86% 29.64 in 8.0 mi WNW 15.0 mph 21.9 mph 0.03 in Rain Light Rain
5:04 AM 35.6 °F 25.9 °F 32.0 °F 87% 29.63 in 7.0 mi WNW 16.1 mph - 0.01 in Rain Light Rain
5:53 AM 36.0 °F 27.1 °F 33.1 °F 89% 29.62 in 10.0 mi WNW 13.8 mph 24.2 mph 0.03 in Rain Light Rain
6:53 AM 37.0 °F 28.1 °F 33.1 °F 86% 29.60 in 10.0 mi NW 15.0 mph 23.0 mph 0.02 in Rain Light Rain
7:28 AM 37.4 °F 28.9 °F 33.8 °F 87% 29.59 in 8.0 mi NW 13.8 mph 19.6 mph 0.03 in Rain Light Rain
7:53 AM 37.0 °F 29.3 °F 33.1 °F 86% 29.60 in 7.0 mi NW 11.5 mph - 0.05 in Rain Rain
8:34 AM 37.4 °F 28.2 °F 33.8 °F 87% 29.58 in 9.0 mi NW 16.1 mph 23.0 mph 0.04 in Rain Light Rain
8:53 AM 37.0 °F 27.7 °F 34.0 °F 89% 29.59 in 6.0 mi NW 16.1 mph 21.9 mph 0.05 in Rain Light Rain
9:53 AM 37.9 °F 28.2 °F 35.1 °F 89% 29.59 in 10.0 mi NW 18.4 mph 25.3 mph 0.01 in Rain Light Rain
10:53 AM 39.9 °F 30.8 °F 35.1 °F 83% 29.57 in 10.0 mi NW 18.4 mph 27.6 mph 0.01 in   Overcast
11:53 AM 41.0 °F 32.2 °F 36.0 °F 82% 29.58 in 10.0 mi NW 18.4 mph 29.9 mph 0.00 in   Overcast
12:53 PM 42.1 °F 34.2 °F 36.0 °F 79% 29.57 in 10.0 mi NW 16.1 mph 26.5 mph 0.00 in Rain Light Rain
1:53 PM 42.1 °F 33.9 °F 37.0 °F 82% 29.57 in 6.0 mi NW 17.3 mph 26.5 mph 0.00 in Rain Light Rain
2:53 PM 41.0 °F 32.8 °F 37.0 °F 86% 29.58 in 6.0 mi NW 16.1 mph 24.2 mph 0.00 in   Overcast
3:53 PM 42.1 °F 33.3 °F 37.0 °F 82% 29.59 in 10.0 mi NW 19.6 mph 28.8 mph 0.00 in   Overcast
4:53 PM 43.0 °F 35.4 °F 37.0 °F 80% 29.60 in 10.0 mi NW 16.1 mph 29.9 mph N/A   Overcast
5:26 PM 42.8 °F 34.5 °F 35.6 °F 76% 29.60 in 10.0 mi NW 18.4 mph 32.2 mph N/A   Overcast
5:40 PM 42.8 °F 35.1 °F 37.4 °F 81% 29.60 in 9.0 mi WNW 16.1 mph 25.3 mph N/A   Overcast
5:53 PM 42.1 °F 33.9 °F 37.0 °F 82% 29.62 in 9.0 mi NW 17.3 mph 27.6 mph N/A   Overcast
6:53 PM 42.1 °F 34.2 °F 37.0 °F 82% 29.65 in 10.0 mi NW 16.1 mph 25.3 mph 0.00 in   Overcast
7:53 PM 41.0 °F 34.7 °F 37.9 °F 89% 29.67 in 6.0 mi WNW 10.4 mph - N/A   Overcast
8:53 PM 41.0 °F 34.3 °F 37.9 °F 89% 29.68 in 9.0 mi WNW 11.5 mph 23.0 mph N/A   Overcast
9:50 PM 41.0 °F 35.2 °F 37.4 °F 87% 29.67 in 10.0 mi WNW 9.2 mph - N/A   Overcast
9:53 PM 41.0 °F 35.8 °F 37.9 °F 89% 29.68 in 10.0 mi WNW 8.1 mph - N/A   Overcast
10:53 PM 42.1 °F 35.7 °F 37.0 °F 82% 29.68 in 10.0 mi WNW 11.5 mph - N/A   Overcast
11:53 PM 42.1 °F 35.7 °F 37.0 °F 82% 29.68 in 10.0 mi WNW 11.5 mph - N/A   Overcast